Active alerts


No alerts


weather webcam more information weather webcam


Thunder radar more information blitzortung!


Rain radar more information rain snow radar


Visit our other weather sites:

Template documentation
and downloads

And another site


Weather Underground History page Text

Daily Summary for August 14, 2018 Units:  English    Metric   Both
« Previous Day
Next Day »
Daily Weekly Monthly Yearly Custom
  Current: High: Low: Average:
Temperature: 78 °F TemperatureF °F 70.9 °F 78.8 °F
Dew Point: 67.4 °F DewpointF °F 66.8 °F 69.1 °F
Humidity: 70 % Humidity % 54 % 73 %
Wind Speed: 3 mph WindSpeedMPH mph 0 mph 0.9 mph
Wind Gust: 6 mph WindSpeedGustMPH mph - -
Wind:NNW - - SSW
Pressure: 29.86 in PressureIn in 29.83 in -
Precipitation: 0 in      
Historical Graphs
 
 
Tabular Data for August 14, 2018
Time Temperature Dew Point Pressure Wind Wind Speed Wind Gust Humidity Rainfall Rate (Hourly)
TemperatureF °F DewpointF °F PressureIn in Calm     Humidity % HourlyPrecipIn in
00:00 76.7 °F 68.2 °F 29.91 in Calm   4 mph 75 % 0 in
00:05 76.6 °F 68.1 °F 29.91 in Calm   7 mph 75 % 0 in
00:10 76.6 °F 68.5 °F 29.92 in Calm   7 mph 76 % 0 in
00:15 76.5 °F 68 °F 29.92 in Calm   4 mph 75 % 0 in
00:20 76.4 °F 67.9 °F 29.91 in Calm   4 mph 75 % 0 in
00:25 76.3 °F 67.8 °F 29.91 in Calm   5 mph 75 % 0 in
00:30 76.3 °F 68.2 °F 29.92 in West 1 mph 5 mph 76 % 0 in
00:35 76.3 °F 68.2 °F 29.91 in Calm   4 mph 76 % 0 in
00:40 76.2 °F 68.1 °F 29.91 in Calm   3 mph 76 % 0 in
00:45 76.2 °F 68.1 °F 29.91 in Calm   3 mph 76 % 0 in
00:50 76.1 °F 68 °F 29.91 in Calm   1 mph 76 % 0 in
00:55 76 °F 67.9 °F 29.91 in Calm     76 % 0 in
01:00 75.8 °F 68.1 °F 29.91 in South 1 mph 3 mph 77 % 0 in
01:05 75.7 °F 68 °F 29.91 in Calm   3 mph 77 % 0 in
01:10 75.6 °F 67.9 °F 29.91 in Calm   5 mph 77 % 0 in
01:15 75.6 °F 67.9 °F 29.91 in Calm   5 mph 77 % 0 in
01:20 75.5 °F 68.2 °F 29.91 in Calm   2 mph 78 % 0 in
01:25 75.4 °F 68.1 °F 29.91 in Calm   4 mph 78 % 0 in
01:30 75.3 °F 68.3 °F 29.91 in SW 2 mph 4 mph 79 % 0 in
01:35 75.2 °F 68.2 °F 29.91 in Calm   3 mph 79 % 0 in
01:40 75.1 °F 68.1 °F 29.91 in Calm   3 mph 79 % 0 in
01:45 75 °F 68.4 °F 29.91 in Calm   1 mph 80 % 0 in
01:50 74.9 °F 68.3 °F 29.91 in SSW 3 mph 4 mph 80 % 0 in
01:55 74.8 °F 68.2 °F 29.91 in Calm   4 mph 80 % 0 in
02:00 74.8 °F 68.2 °F 29.91 in Calm   4 mph 80 % 0 in
02:05 74.7 °F 68.5 °F 29.91 in SW 1 mph 5 mph 81 % 0 in
02:10 74.7 °F 68.5 °F 29.91 in Calm   5 mph 81 % 0 in
02:15 74.8 °F 68.6 °F 29.91 in SW 1 mph 3 mph 81 % 0 in
02:20 74.7 °F 68.5 °F 29.91 in Calm   2 mph 81 % 0 in
02:25 74.7 °F 68.5 °F 29.91 in Calm   2 mph 81 % 0 in
02:30 74.7 °F 68.5 °F 29.91 in Calm   3 mph 81 % 0 in
02:35 74.6 °F 68.4 °F 29.91 in Calm   3 mph 81 % 0 in
02:40 74.6 °F 68.4 °F 29.91 in Calm   2 mph 81 % 0 in
02:45 74.4 °F 68.2 °F 29.91 in Calm   2 mph 81 % 0 in
02:50 74.4 °F 68.2 °F 29.91 in Calm   3 mph 81 % 0 in
02:55 74.3 °F 68.4 °F 29.91 in South 1 mph 3 mph 82 % 0 in
03:00 74.3 °F 68.4 °F 29.91 in Calm   3 mph 82 % 0 in
03:05 74.2 °F 68.3 °F 29.91 in Calm   1 mph 82 % 0 in
03:10 74.1 °F 68.3 °F 29.91 in Calm   2 mph 82 % 0 in
03:15 74 °F 68.2 °F 29.91 in Calm   2 mph 82 % 0 in
03:20 73.8 °F 68 °F 29.90 in Calm     82 % 0 in
03:25 73.8 °F 68.3 °F 29.90 in Calm   1 mph 83 % 0 in
03:30 73.7 °F 68.2 °F 29.90 in Calm   2 mph 83 % 0 in
03:35 73.6 °F 68.1 °F 29.90 in Calm   2 mph 83 % 0 in
03:40 73.5 °F 68 °F 29.90 in Calm   2 mph 83 % 0 in
03:45 73.4 °F 67.9 °F 29.90 in Calm   1 mph 83 % 0 in
03:50 73.4 °F 67.9 °F 29.89 in Calm   1 mph 83 % 0 in
03:55 73.3 °F 67.8 °F 29.90 in Calm     83 % 0 in
04:00 73.3 °F 67.8 °F 29.90 in Calm     83 % 0 in
04:05 73.2 °F 67.7 °F 29.90 in Calm     83 % 0 in
04:10 73.1 °F 67.6 °F 29.90 in Calm     83 % 0 in
04:15 73.1 °F 67.6 °F 29.89 in Calm     83 % 0 in
04:20 73 °F 67.9 °F 29.90 in Calm     84 % 0 in
04:25 72.9 °F 67.8 °F 29.90 in Calm   1 mph 84 % 0 in
04:30 72.9 °F 67.8 °F 29.90 in Calm   5 mph 84 % 0 in
04:35 72.8 °F 67.7 °F 29.89 in Calm   5 mph 84 % 0 in
04:40 72.8 °F 67.7 °F 29.89 in Calm   2 mph 84 % 0 in
04:45 72.8 °F 67.7 °F 29.89 in Calm   1 mph 84 % 0 in
04:50 72.7 °F 67.6 °F 29.90 in Calm   1 mph 84 % 0 in
04:55 72.5 °F 67.4 °F 29.90 in Calm   1 mph 84 % 0 in
05:00 72.5 °F 67.4 °F 29.89 in Calm   5 mph 84 % 0 in
05:05 72.5 °F 67.4 °F 29.89 in Calm   5 mph 84 % 0 in
05:10 72.5 °F 67.4 °F 29.89 in Calm   1 mph 84 % 0 in
05:15 72.4 °F 67.3 °F 29.89 in Calm   3 mph 84 % 0 in
05:20 72.3 °F 67.2 °F 29.89 in Calm   3 mph 84 % 0 in
05:25 72.2 °F 67.1 °F 29.89 in Calm     84 % 0 in
05:30 72 °F 67.2 °F 29.89 in Calm   1 mph 85 % 0 in
05:35 71.9 °F 67.1 °F 29.89 in Calm   1 mph 85 % 0 in
05:40 71.8 °F 67 °F 29.89 in Calm   1 mph 85 % 0 in
05:45 71.7 °F 66.9 °F 29.89 in Calm   1 mph 85 % 0 in
05:50 71.6 °F 66.8 °F 29.89 in Calm     85 % 0 in
05:55 71.6 °F 67.2 °F 29.89 in Calm     86 % 0 in
06:00 71.5 °F 67.1 °F 29.89 in Calm     86 % 0 in
06:05 71.5 °F 67.1 °F 29.89 in Calm     86 % 0 in
06:10 71.4 °F 67 °F 29.89 in Calm     86 % 0 in
06:15 71.2 °F 67.1 °F 29.89 in Calm     87 % 0 in
06:20 71.2 °F 67.1 °F 29.88 in Calm     87 % 0 in
06:25 71.1 °F 67 °F 29.88 in Calm     87 % 0 in
06:30 71.1 °F 67 °F 29.88 in Calm     87 % 0 in
06:35 71 °F 66.9 °F 29.88 in Calm     87 % 0 in
06:40 70.9 °F 66.8 °F 29.88 in Calm     87 % 0 in
06:45 70.9 °F 66.8 °F 29.88 in Calm     87 % 0 in
06:50 70.9 °F 67.2 °F 29.88 in Calm   1 mph 88 % 0 in
06:55 71 °F 67.3 °F 29.88 in Calm   1 mph 88 % 0 in
07:00 71 °F 66.9 °F 29.88 in Calm   1 mph 87 % 0 in
07:05 71.1 °F 67 °F 29.88 in Calm   2 mph 87 % 0 in
07:10 71.4 °F 67.3 °F 29.88 in Calm   2 mph 87 % 0 in
07:15 71.6 °F 67.2 °F 29.88 in SSE 1 mph 4 mph 86 % 0 in
07:20 71.8 °F 67.4 °F 29.88 in Calm   4 mph 86 % 0 in
07:25 72.1 °F 67.7 °F 29.88 in Calm   4 mph 86 % 0 in
07:30 72.3 °F 67.5 °F 29.88 in Calm   2 mph 85 % 0 in
07:35 72.5 °F 67.7 °F 29.88 in Calm     85 % 0 in
07:40 72.6 °F 67.5 °F 29.88 in Calm     84 % 0 in
07:45 72.7 °F 67.6 °F 29.88 in South 1 mph 5 mph 84 % 0 in
07:50 72.8 °F 67.3 °F 29.88 in Calm   5 mph 83 % 0 in
07:55 73 °F 67.5 °F 29.88 in Calm   2 mph 83 % 0 in
08:00 73.2 °F 67.7 °F 29.88 in SSW 1 mph 2 mph 83 % 0 in
08:05 73.5 °F 68 °F 29.88 in Calm   4 mph 83 % 0 in
08:10 73.7 °F 67.9 °F 29.88 in Calm   4 mph 82 % 0 in
08:15 73.9 °F 67.7 °F 29.88 in Calm   2 mph 81 % 0 in
08:20 74.2 °F 68 °F 29.88 in Calm   2 mph 81 % 0 in
08:25 74.3 °F 68.1 °F 29.88 in Calm   1 mph 81 % 0 in
08:30 74.5 °F 68.3 °F 29.88 in Calm     81 % 0 in
08:35 74.6 °F 67.7 °F 29.88 in Calm   2 mph 79 % 0 in
08:40 74.8 °F 67.1 °F 29.88 in Calm   2 mph 77 % 0 in
08:45 75.2 °F 67.1 °F 29.88 in SSW 1 mph 3 mph 76 % 0 in
08:50 75.5 °F 67 °F 29.88 in South 2 mph 5 mph 75 % 0 in
08:55 75.8 °F 67.3 °F 29.88 in SW 1 mph 5 mph 75 % 0 in
09:00 76.1 °F 67.6 °F 29.88 in Calm   5 mph 75 % 0 in
09:05 76.5 °F 67.6 °F 29.89 in Calm   5 mph 74 % 0 in
09:10 76.9 °F 68.4 °F 29.89 in SW 2 mph 5 mph 75 % 0 in
09:15 77.2 °F 67.5 °F 29.89 in Calm   3 mph 72 % 0 in
09:20 77.4 °F 67.3 °F 29.89 in Calm   3 mph 71 % 0 in
09:25 77.6 °F 67.4 °F 29.89 in SW 1 mph 4 mph 71 % 0 in
09:30 77.7 °F 67.5 °F 29.89 in Calm   4 mph 71 % 0 in
09:35 77.8 °F 67.6 °F 29.90 in Calm   2 mph 71 % 0 in
09:40 77.9 °F 68.1 °F 29.90 in Calm   2 mph 72 % 0 in
09:45 78 °F 68.2 °F 29.89 in WNW 2 mph 2 mph 72 % 0 in
09:50 78.1 °F 67.5 °F 29.89 in Calm   3 mph 70 % 0 in
09:55 78.2 °F 68.8 °F 29.89 in Calm   3 mph 73 % 0 in
10:00 78.3 °F 68.5 °F 29.89 in Calm   5 mph 72 % 0 in
10:05 78.4 °F 68.2 °F 29.89 in Calm   5 mph 71 % 0 in
10:10 78.5 °F 68.7 °F 29.90 in WNW 4 mph 9 mph 72 % 0 in
10:15 78.7 °F 68.5 °F 29.90 in SSW 2 mph 9 mph 71 % 0 in
10:20 79 °F 69.2 °F 29.90 in West 2 mph 6 mph 72 % 0 in
10:25 79.5 °F 69.3 °F 29.90 in West 2 mph 6 mph 71 % 0 in
10:30 79.9 °F 69.2 °F 29.90 in Calm   4 mph 70 % 0 in
10:35 80.2 °F 69.1 °F 29.90 in West 2 mph 4 mph 69 % 0 in
10:40 80.7 °F 68.7 °F 29.90 in NW 1 mph 3 mph 67 % 0 in
10:45 81.3 °F 69.7 °F 29.90 in Calm   4 mph 68 % 0 in
10:50 82 °F 69.1 °F 29.90 in West 2 mph 4 mph 65 % 0 in
10:55 82.4 °F 70.8 °F 29.90 in NW 1 mph 2 mph 68 % 0 in
11:00 83 °F 70.5 °F 29.90 in NNE 2 mph 4 mph 66 % 0 in
11:05 83.4 °F 70.4 °F 29.89 in Calm   4 mph 65 % 0 in
11:10 83.9 °F 70.9 °F 29.89 in South 4 mph 4 mph 65 % 0 in
11:15 84.5 °F 71.4 °F 29.89 in Calm   4 mph 65 % 0 in
11:20 84.8 °F 69.9 °F 29.89 in South 5 mph 6 mph 61 % 0 in
11:25 84.9 °F 70.4 °F 29.89 in SSW 1 mph 6 mph 62 % 0 in
11:30 84.9 °F 71.4 °F 29.89 in Calm   5 mph 64 % 0 in
11:35 84.9 °F 71.4 °F 29.89 in Calm   2 mph 64 % 0 in
11:40 85 °F 71.9 °F 29.89 in Calm   3 mph 65 % 0 in
11:45 85.1 °F 71.1 °F 29.89 in WNW 2 mph 3 mph 63 % 0 in
11:50 84.9 °F 70.4 °F 29.89 in Calm   2 mph 62 % 0 in
11:55 84.9 °F 71.4 °F 29.89 in Calm   2 mph 64 % 0 in
12:00 85.1 °F 70.6 °F 29.88 in Calm     62 % 0 in
12:05 85.8 °F 71.7 °F 29.88 in Calm     63 % 0 in
12:10 86.6 °F 73.4 °F 29.88 in Calm   4 mph 65 % 0 in
12:15 86.9 °F 72.3 °F 29.88 in NW 5 mph 6 mph 62 % 0 in
12:20 86.3 °F 71.7 °F 29.88 in Calm   9 mph 62 % 0 in
12:25 86 °F 71.9 °F 29.88 in North 2 mph 9 mph 63 % 0 in
12:30 85.8 °F 73.1 °F 29.88 in NNW 2 mph 7 mph 66 % 0 in
12:35 85.7 °F 72.6 °F 29.88 in WNW 2 mph 5 mph 65 % 0 in
12:40 85.5 °F 71.9 °F 29.88 in WNW 2 mph 6 mph 64 % 0 in
12:45 85.2 °F 72.1 °F 29.88 in NW 3 mph 6 mph 65 % 0 in
12:50 85 °F 71.9 °F 29.88 in West 3 mph 6 mph 65 % 0 in
12:55 84.9 °F 71.8 °F 29.88 in North 2 mph 6 mph 65 % 0 in
13:00 84.6 °F 72 °F 29.88 in Calm   6 mph 66 % 0 in
13:05 84.5 °F 71.9 °F 29.88 in NNW 3 mph 5 mph 66 % 0 in
13:10 84.3 °F 72.6 °F 29.88 in NW 4 mph 4 mph 68 % 0 in
13:15 84.1 °F 72.4 °F 29.88 in West 1 mph 5 mph 68 % 0 in
13:20 84 °F 72.3 °F 29.88 in NNW 3 mph 5 mph 68 % 0 in
13:25 83.8 °F 72.5 °F 29.88 in NW 1 mph 4 mph 69 % 0 in
13:30 83.7 °F 72 °F 29.88 in Calm   5 mph 68 % 0 in
13:35 83.8 °F 72.1 °F 29.88 in Calm   5 mph 68 % 0 in
13:40 84 °F 72.3 °F 29.88 in NNW 4 mph 4 mph 68 % 0 in
13:45 84.1 °F 73.3 °F 29.88 in NNW 3 mph 5 mph 70 % 0 in
13:50 84.1 °F 72 °F 29.88 in NE 3 mph 5 mph 67 % 0 in
13:55 83.9 °F 72.2 °F 29.88 in WNW 2 mph 8 mph 68 % 0 in
14:00 83.9 °F 72.6 °F 29.88 in WNW 2 mph 8 mph 69 % 0 in
14:05 83.9 °F 72.6 °F 29.88 in Calm   3 mph 69 % 0 in
14:10 84 °F 72.3 °F 29.88 in Calm   3 mph 68 % 0 in
14:15 84.1 °F 72.4 °F 29.87 in Calm   2 mph 68 % 0 in
14:20 84.3 °F 73.4 °F 29.87 in Calm   1 mph 70 % 0 in
14:25 84.5 °F 73.2 °F 29.87 in Calm   1 mph 69 % 0 in
14:30 84.7 °F 73 °F 29.86 in Calm   1 mph 68 % 0 in
14:35 85.2 °F 73.4 °F 29.86 in SSE 1 mph 3 mph 68 % 0 in
14:40 85.8 °F 73.1 °F 29.86 in Calm   3 mph 66 % 0 in
14:45 86.2 °F 72.6 °F 29.85 in Calm   2 mph 64 % 0 in
14:50 86.4 °F 71.8 °F 29.85 in East 3 mph 9 mph 62 % 0 in
14:55 86.7 °F 71.2 °F 29.85 in SSE 1 mph 9 mph 60 % 0 in
15:00 86.8 °F 72.7 °F 29.84 in ESE 1 mph 7 mph 63 % 0 in
15:05 87 °F 74.3 °F 29.84 in NNE 1 mph 7 mph 66 % 0 in
15:10 87.5 °F 73.3 °F 29.84 in Calm   7 mph 63 % 0 in
15:15 88.1 °F 72 °F 29.84 in South 7 mph 8 mph 59 % 0 in
15:20 88.6 °F 72.4 °F 29.84 in SSW 1 mph 8 mph 59 % 0 in
15:25 89.1 °F 72.4 °F 29.85 in SSW 5 mph 9 mph 58 % 0 in
15:30 89.2 °F 70.4 °F 29.85 in ESE 2 mph 9 mph 54 % 0 in
15:35 89 °F 70.2 °F 29.85 in South 4 mph 9 mph 54 % 0 in
15:40 88.7 °F 69.9 °F 29.85 in Calm   9 mph 54 % 0 in
15:45 88.7 °F 71.5 °F 29.85 in SSE 5 mph 6 mph 57 % 0 in
15:50 88.8 °F 70 °F 29.85 in Calm   6 mph 54 % 0 in
15:55 89.1 °F 70.8 °F 29.85 in Calm   9 mph 55 % 0 in
16:00 89.2 °F 71.5 °F 29.85 in SSW 2 mph 9 mph 56 % 0 in
16:05 89.4 °F 72.2 °F 29.85 in West 3 mph 7 mph 57 % 0 in
16:10 89.5 °F 71.2 °F 29.85 in WNW 2 mph 8 mph 55 % 0 in
16:15 89.1 °F 71.4 °F 29.85 in NW 3 mph 8 mph 56 % 0 in
16:20 88.6 °F 71.4 °F 29.85 in SW 2 mph 6 mph 57 % 0 in
16:25 88.2 °F 72.1 °F 29.85 in Calm   6 mph 59 % 0 in
16:30 88 °F 71.9 °F 29.85 in Calm   9 mph 59 % 0 in
16:35 87.9 °F 71.3 °F 29.85 in SSE 1 mph 9 mph 58 % 0 in
16:40 87.7 °F 71.6 °F 29.85 in Calm   4 mph 59 % 0 in
16:45 87.6 °F 71 °F 29.84 in Calm   4 mph 58 % 0 in
16:50 87.2 °F 70.6 °F 29.85 in SSE 1 mph 4 mph 58 % 0 in
16:55 86.9 °F 71.3 °F 29.84 in Calm   4 mph 60 % 0 in
17:00 86.8 °F 71.2 °F 29.84 in Calm   4 mph 60 % 0 in
17:05 86.6 °F 71.5 °F 29.84 in Calm   3 mph 61 % 0 in
17:10 86.5 °F 72.4 °F 29.84 in Calm   3 mph 63 % 0 in
17:15 86.4 °F 70.9 °F 29.84 in Calm   3 mph 60 % 0 in
17:20 86.2 °F 71.2 °F 29.84 in Calm   3 mph 61 % 0 in
17:25 86.1 °F 71.1 °F 29.83 in Calm   2 mph 61 % 0 in
17:30 86.1 °F 72 °F 29.83 in Calm   2 mph 63 % 0 in
17:35 85.8 °F 70.8 °F 29.83 in North 4 mph 15 mph 61 % 0 in
17:40 84.8 °F 70.8 °F 29.83 in North 3 mph 15 mph 63 % 0 in
17:45 83.7 °F 70.2 °F 29.83 in NE 3 mph 15 mph 64 % 0 in
17:50 82.7 °F 71.1 °F 29.84 in North 2 mph 11 mph 68 % 0 in
17:55 82.2 °F 71 °F 29.84 in NNE 4 mph 11 mph 69 % 0 in
18:00 82 °F 71.2 °F 29.84 in NE 2 mph 11 mph 70 % 0 in
18:05 82.2 °F 71.9 °F 29.85 in North 1 mph 10 mph 71 % 0 in
18:10 82.2 °F 71.9 °F 29.85 in North 2 mph 10 mph 71 % 0 in
18:15 81.9 °F 71.6 °F 29.85 in North 3 mph 10 mph 71 % 0 in
18:20 81.6 °F 71.3 °F 29.86 in North 2 mph 10 mph 71 % 0 in
18:25 81.2 °F 70.9 °F 29.86 in NE 1 mph 10 mph 71 % 0 in
18:30 80.8 °F 70.5 °F 29.86 in NE 1 mph 10 mph 71 % 0 in
18:35 80.6 °F 70.3 °F 29.86 in NNE 2 mph 6 mph 71 % 0 in
18:40 80.4 °F 70.5 °F 29.86 in NNE 3 mph 6 mph 72 % 0 in
18:45 80.3 °F 70.4 °F 29.86 in NNW 3 mph 6 mph 72 % 0 in
18:50 80.2 °F 70.4 °F 29.86 in NNW 4 mph 8 mph 72 % 0 in
18:55 80.1 °F 70.3 °F 29.86 in NE 1 mph 8 mph 72 % 0 in
19:00 80 °F 70.2 °F 29.86 in NE 2 mph 6 mph 72 % 0 in
19:05 80 °F 70.2 °F 29.86 in Calm   4 mph 72 % 0 in
19:10 79.9 °F 70.1 °F 29.86 in North 3 mph 4 mph 72 % 0 in
19:15 79.9 °F 70.1 °F 29.86 in North 1 mph 5 mph 72 % 0 in
19:20 79.9 °F 70.1 °F 29.86 in NNW 2 mph 6 mph 72 % 0 in
19:25 79.8 °F 70 °F 29.86 in NNW 3 mph 6 mph 72 % 0 in
19:30 79.8 °F 69.6 °F 29.86 in NNW 4 mph 6 mph 71 % 0 in
19:35 79.7 °F 69.5 °F 29.86 in NNW 1 mph 6 mph 71 % 0 in
19:40 79.6 °F 69.4 °F 29.86 in North 1 mph 6 mph 71 % 0 in
19:45 79.5 °F 68.9 °F 29.86 in NNE 1 mph 5 mph 70 % 0 in
19:50 79.3 °F 68.7 °F 29.86 in NE 3 mph 9 mph 70 % 0 in
19:55 79.1 °F 68.1 °F 29.86 in NNE 1 mph 9 mph 69 % 0 in
20:00 79.1 °F 68.1 °F 29.86 in NNW 2 mph 7 mph 69 % 0 in
20:05 78.9 °F 67.9 °F 29.86 in NNE 3 mph 9 mph 69 % 0 in
20:10 78.8 °F 68.2 °F 29.87 in NNE 5 mph 10 mph 70 % 0 in
20:15 78.5 °F 67.9 °F 29.86 in NNE 3 mph 10 mph 70 % 0 in
20:20 78.4 °F 67.8 °F 29.86 in Calm   9 mph 70 % 0 in
20:25 78.2 °F 68 °F 29.86 in NW 3 mph 9 mph 71 % 0 in
20:30 78 °F 67.4 °F 29.86 in NNW 3 mph 6 mph 70 % 0 in
Edina, Minnesota
Compliments of Weather Underground - 4 mb

Script developed by  Jim McMurry - jmcmurry@mwt.net Adapted for the template by  Wim van der Kuil - Leuven-Template.eu

You find our weather info also at:

Weather Underground

Midwestern Weather Network

Citizen Weather Observer Program (CWOP)

HAMweather, WeatherForYou, PWS Weather

Equipment we use:

Weather-station
Davis VP2

Weather-program
Cumulus

Davis VP2

Cumulus